owner,sensor,date,latitude,longitude,vertical_datum,mass_concentration_of_oxygen_in_sea_water,qcFlag 
DISL,ioos:station:DISL:DISL:1,2012-02-01T00:00:00Z,30.2513,-88.0778,6.963,10.4,1111122 
DISL,ioos:station:DISL:DISL:1,2012-02-01T00:30:00Z,30.2513,-88.0778,6.797,10.41,1111122 
DISL,ioos:station:DISL:DISL:1,2012-02-01T01:00:00Z,30.2513,-88.0778,6.861,10.44,1111122 
DISL,ioos:station:DISL:DISL:1,2012-02-01T01:30:00Z,30.2513,-88.0778,6.724,10.76,1111122 
DISL,ioos:station:DISL:DISL:1,2012-02-01T02:00:00Z,30.2513,-88.0778,6.763,10.77,1111122 
DISL,ioos:station:DISL:DISL:1,2012-02-01T02:30:00Z,30.2513,-88.0778,6.591,10.64,1111122 
DISL,ioos:station:DISL:DISL:1,2012-02-01T03:00:00Z,30.2513,-88.0778,6.628,10.27,1111122 
DISL,ioos:station:DISL:DISL:1,2012-02-01T03:30:00Z,30.2513,-88.0778,6.568,10.49,1111122 
DISL,ioos:station:DISL:DISL:1,2012-02-01T04:00:00Z,30.2513,-88.0778,6.461,10.56,1111122 
DISL,ioos:station:DISL:DISL:1,2012-02-01T04:30:00Z,30.2513,-88.0778,6.449,10.54,1111122 
DISL,ioos:station:DISL:DISL:1,2012-02-01T05:00:00Z,30.2513,-88.0778,6.346,10.61,1111122 
DISL,ioos:station:DISL:DISL:1,2012-02-01T05:30:00Z,30.2513,-88.0778,6.292,10.5,1111122 
DISL,ioos:station:DISL:DISL:1,2012-02-01T06:00:00Z,30.2513,-88.0778,6.276,10.13,1111122 
DISL,ioos:station:DISL:DISL:1,2012-02-01T06:30:00Z,30.2513,-88.0778,6.117,10.23,1111122 
DISL,ioos:station:DISL:DISL:1,2012-02-01T07:00:00Z,30.2513,-88.0778,6.087,10.46,1111122 
DISL,ioos:station:DISL:DISL:1,2012-02-01T07:30:00Z,30.2513,-88.0778,6.083,10.54,1111122 
DISL,ioos:station:DISL:DISL:1,2012-02-01T08:00:00Z,30.2513,-88.0778,6.042,10.43,1111122 
DISL,ioos:station:DISL:DISL:1,2012-02-01T08:30:00Z,30.2513,-88.0778,6.027,10.31,1111122 
DISL,ioos:station:DISL:DISL:1,2012-02-01T09:00:00Z,30.2513,-88.0778,5.942,10.26,1111122 
DISL,ioos:station:DISL:DISL:1,2012-02-01T09:30:00Z,30.2513,-88.0778,5.906,10.17,1111122 
DISL,ioos:station:DISL:DISL:1,2012-02-01T10:00:00Z,30.2513,-88.0778,5.986,10.16,1111122 
DISL,ioos:station:DISL:DISL:1,2012-02-01T10:30:00Z,30.2513,-88.0778,5.608,10.17,1111122 
DISL,ioos:station:DISL:DISL:1,2012-02-01T11:00:00Z,30.2513,-88.0778,5.899,10.15,1111122 
DISL,ioos:station:DISL:DISL:1,2012-02-01T11:30:00Z,30.2513,-88.0778,5.888,10.19,1111122 
DISL,ioos:station:DISL:DISL:1,2012-02-01T12:00:00Z,30.2513,-88.0778,5.938,10.11,1111122 
DISL,ioos:station:DISL:DISL:1,2012-02-01T12:30:00Z,30.2513,-88.0778,5.96,10.09,1111122 
DISL,ioos:station:DISL:DISL:1,2012-02-01T13:00:00Z,30.2513,-88.0778,5.972,10.01,1111122 
DISL,ioos:station:DISL:DISL:1,2012-02-01T13:30:00Z,30.2513,-88.0778,6.055,10.02,1111122 
DISL,ioos:station:DISL:DISL:1,2012-02-01T14:00:00Z,30.2513,-88.0778,6.067,9.52,1111122 
DISL,ioos:station:DISL:DISL:1,2012-02-01T14:30:00Z,30.2513,-88.0778,6.04,9.54,1111122 
DISL,ioos:station:DISL:DISL:1,2012-02-01T15:00:00Z,30.2513,-88.0778,6.133,9.56,1111122 
DISL,ioos:station:DISL:DISL:1,2012-02-01T15:30:00Z,30.2513,-88.0778,6.269,9.69,1111122 
DISL,ioos:station:DISL:DISL:1,2012-02-01T16:00:00Z,30.2513,-88.0778,6.261,9.65,1111122 
DISL,ioos:station:DISL:DISL:1,2012-02-01T16:30:00Z,30.2513,-88.0778,6.433,9.62,1111122 
DISL,ioos:station:DISL:DISL:1,2012-02-01T17:00:00Z,30.2513,-88.0778,6.428,9.49,1111122 
DISL,ioos:station:DISL:DISL:1,2012-02-01T17:30:00Z,30.2513,-88.0778,6.549,8.43,1111122 
DISL,ioos:station:DISL:DISL:1,2012-02-01T18:00:00Z,30.2513,-88.0778,6.73,8.4,1111122 
DISL,ioos:station:DISL:DISL:1,2012-02-01T18:30:00Z,30.2513,-88.0778,6.76,9.44,1111122 
DISL,ioos:station:DISL:DISL:1,2012-02-01T19:00:00Z,30.2513,-88.0778,6.744,8.96,1111122 
DISL,ioos:station:DISL:DISL:1,2012-02-01T19:30:00Z,30.2513,-88.0778,6.817,9.14,1111122 
DISL,ioos:station:DISL:DISL:1,2012-02-01T20:00:00Z,30.2513,-88.0778,6.833,8.17,1111122 
DISL,ioos:station:DISL:DISL:1,2012-02-01T20:30:00Z,30.2513,-88.0778,7.0,8.48,1111122 
DISL,ioos:station:DISL:DISL:1,2012-02-01T21:00:00Z,30.2513,-88.0778,6.921,8.13,1111122 
DISL,ioos:station:DISL:DISL:1,2012-02-01T21:30:00Z,30.2513,-88.0778,6.974,8.76,1111122 
DISL,ioos:station:DISL:DISL:1,2012-02-01T22:00:00Z,30.2513,-88.0778,7.02,8.96,1111122 
DISL,ioos:station:DISL:DISL:1,2012-02-01T22:30:00Z,30.2513,-88.0778,6.942,9.04,1111122 
DISL,ioos:station:DISL:DISL:1,2012-02-01T23:00:00Z,30.2513,-88.0778,6.99,9.09,1111122 
DISL,ioos:station:DISL:DISL:1,2012-02-01T23:30:00Z,30.2513,-88.0778,6.883,9.14,1111122 
DISL,ioos:station:DISL:DISL:1,2012-02-02T00:00:00Z,30.2513,-88.0778,6.893,8.91,1111122 
DISL,ioos:station:DISL:DISL:1,2012-02-02T00:30:00Z,30.2513,-88.0778,6.974,10.23,1111122 
DISL,ioos:station:DISL:DISL:1,2012-02-02T01:00:00Z,30.2513,-88.0778,6.86,10.11,1111122 
DISL,ioos:station:DISL:DISL:1,2012-02-02T01:30:00Z,30.2513,-88.0778,6.735,10.1,1111122 
DISL,ioos:station:DISL:DISL:1,2012-02-02T02:00:00Z,30.2513,-88.0778,6.752,10.11,1111122 
DISL,ioos:station:DISL:DISL:1,2012-02-02T02:30:00Z,30.2513,-88.0778,6.676,9.99,1111122 
DISL,ioos:station:DISL:DISL:1,2012-02-02T03:00:00Z,30.2513,-88.0778,6.684,9.97,1111122 
DISL,ioos:station:DISL:DISL:1,2012-02-02T03:30:00Z,30.2513,-88.0778,6.586,9.99,1111122 
DISL,ioos:station:DISL:DISL:1,2012-02-02T04:00:00Z,30.2513,-88.0778,6.479,9.96,1111122 
DISL,ioos:station:DISL:DISL:1,2012-02-02T04:30:00Z,30.2513,-88.0778,6.468,9.91,1111122 
DISL,ioos:station:DISL:DISL:1,2012-02-02T05:00:00Z,30.2513,-88.0778,6.386,9.92,1111122 
DISL,ioos:station:DISL:DISL:1,2012-02-02T05:30:00Z,30.2513,-88.0778,6.317,9.89,1111122 
DISL,ioos:station:DISL:DISL:1,2012-02-02T06:00:00Z,30.2513,-88.0778,6.263,9.87,1111122 
DISL,ioos:station:DISL:DISL:1,2012-02-02T06:30:00Z,30.2513,-88.0778,6.175,9.92,1111122 
DISL,ioos:station:DISL:DISL:1,2012-02-02T07:00:00Z,30.2513,-88.0778,6.141,9.97,1111122 
DISL,ioos:station:DISL:DISL:1,2012-02-02T07:30:00Z,30.2513,-88.0778,6.021,10.0,1111122 
DISL,ioos:station:DISL:DISL:1,2012-02-02T08:00:00Z,30.2513,-88.0778,5.945,9.99,1111122 
DISL,ioos:station:DISL:DISL:1,2012-02-02T08:30:00Z,30.2513,-88.0778,5.865,10.02,1111122 
DISL,ioos:station:DISL:DISL:1,2012-02-02T09:00:00Z,30.2513,-88.0778,5.886,10.0,1111122 
DISL,ioos:station:DISL:DISL:1,2012-02-02T09:30:00Z,30.2513,-88.0778,5.827,10.05,1111122 
DISL,ioos:station:DISL:DISL:1,2012-02-02T10:00:00Z,30.2513,-88.0778,5.791,10.07,1111122 
DISL,ioos:station:DISL:DISL:1,2012-02-02T10:30:00Z,30.2513,-88.0778,5.766,10.05,1111122 
DISL,ioos:station:DISL:DISL:1,2012-02-02T11:00:00Z,30.2513,-88.0778,5.74,10.06,1111122 
DISL,ioos:station:DISL:DISL:1,2012-02-02T11:30:00Z,30.2513,-88.0778,5.724,10.08,1111122 
DISL,ioos:station:DISL:DISL:1,2012-02-02T12:00:00Z,30.2513,-88.0778,5.757,10.1,1111122 
DISL,ioos:station:DISL:DISL:1,2012-02-02T12:30:00Z,30.2513,-88.0778,5.793,10.07,1111122 
DISL,ioos:station:DISL:DISL:1,2012-02-02T13:00:00Z,30.2513,-88.0778,5.858,9.97,1111122 
DISL,ioos:station:DISL:DISL:1,2012-02-02T13:30:00Z,30.2513,-88.0778,5.823,9.98,1111122 
DISL,ioos:station:DISL:DISL:1,2012-02-02T14:00:00Z,30.2513,-88.0778,5.879,9.96,1111122 
DISL,ioos:station:DISL:DISL:1,2012-02-02T14:30:00Z,30.2513,-88.0778,5.917,9.88,1111122 
DISL,ioos:station:DISL:DISL:1,2012-02-02T15:00:00Z,30.2513,-88.0778,5.994,9.79,1111122 
DISL,ioos:station:DISL:DISL:1,2012-02-02T15:30:00Z,30.2513,-88.0778,6.01,9.84,1111122 
DISL,ioos:station:DISL:DISL:1,2012-02-02T16:00:00Z,30.2513,-88.0778,6.087,9.69,1111122 
DISL,ioos:station:DISL:DISL:1,2012-02-02T16:30:00Z,30.2513,-88.0778,6.024,9.59,1111122 
DISL,ioos:station:DISL:DISL:1,2012-02-02T17:00:00Z,30.2513,-88.0778,6.074,9.57,1111122 
DISL,ioos:station:DISL:DISL:1,2012-02-02T17:30:00Z,30.2513,-88.0778,6.183,9.58,1111122 
DISL,ioos:station:DISL:DISL:1,2012-02-02T18:00:00Z,30.2513,-88.0778,6.135,9.59,1111122 
DISL,ioos:station:DISL:DISL:1,2012-02-02T18:30:00Z,30.2513,-88.0778,6.38,9.65,1111122 
DISL,ioos:station:DISL:DISL:1,2012-02-02T19:00:00Z,30.2513,-88.0778,6.383,9.57,1111122 
DISL,ioos:station:DISL:DISL:1,2012-02-02T19:30:00Z,30.2513,-88.0778,6.423,8.71,1111122 
DISL,ioos:station:DISL:DISL:1,2012-02-02T20:00:00Z,30.2513,-88.0778,6.562,8.52,1111122 
DISL,ioos:station:DISL:DISL:1,2012-02-02T20:30:00Z,30.2513,-88.0778,6.569,8.33,1111122 
DISL,ioos:station:DISL:DISL:1,2012-02-02T21:00:00Z,30.2513,-88.0778,6.619,8.12,1111122 
DISL,ioos:station:DISL:DISL:1,2012-02-02T21:30:00Z,30.2513,-88.0778,6.814,8.14,1111122 
DISL,ioos:station:DISL:DISL:1,2012-02-02T22:00:00Z,30.2513,-88.0778,6.835,7.88,1111122 
DISL,ioos:station:DISL:DISL:1,2012-02-02T22:30:00Z,30.2513,-88.0778,6.896,8.3,1111122 
DISL,ioos:station:DISL:DISL:1,2012-02-02T23:00:00Z,30.2513,-88.0778,7.01,8.52,1111122 
DISL,ioos:station:DISL:DISL:1,2012-02-02T23:30:00Z,30.2513,-88.0778,7.01,8.88,1111122 
DISL,ioos:station:DISL:DISL:1,2012-02-03T00:00:00Z,30.2513,-88.0778,7.01,9.15,1111122 
DISL,ioos:station:DISL:DISL:1,2012-02-03T00:30:00Z,30.2513,-88.0778,6.992,9.23,1111122 
DISL,ioos:station:DISL:DISL:1,2012-02-03T01:00:00Z,30.2513,-88.0778,6.985,9.38,1111122 
DISL,ioos:station:DISL:DISL:1,2012-02-03T01:30:00Z,30.2513,-88.0778,6.989,9.25,1111122 
DISL,ioos:station:DISL:DISL:1,2012-02-03T02:00:00Z,30.2513,-88.0778,6.931,9.19,1111122 
DISL,ioos:station:DISL:DISL:1,2012-02-03T02:30:00Z,30.2513,-88.0778,6.889,9.16,1111122 
DISL,ioos:station:DISL:DISL:1,2012-02-03T03:00:00Z,30.2513,-88.0778,6.818,8.94,1111122 
DISL,ioos:station:DISL:DISL:1,2012-02-03T03:30:00Z,30.2513,-88.0778,6.736,9.05,1111122 
DISL,ioos:station:DISL:DISL:1,2012-02-03T04:00:00Z,30.2513,-88.0778,6.716,11.45,1111122 
DISL,ioos:station:DISL:DISL:1,2012-02-03T04:30:00Z,30.2513,-88.0778,6.577,11.22,1111122 
DISL,ioos:station:DISL:DISL:1,2012-02-03T05:00:00Z,30.2513,-88.0778,6.524,11.08,1111122 
DISL,ioos:station:DISL:DISL:1,2012-02-03T05:30:00Z,30.2513,-88.0778,6.441,10.78,1111122 
DISL,ioos:station:DISL:DISL:1,2012-02-03T06:00:00Z,30.2513,-88.0778,6.375,10.51,1111122 
DISL,ioos:station:DISL:DISL:1,2012-02-03T06:30:00Z,30.2513,-88.0778,6.243,10.48,1111122 
DISL,ioos:station:DISL:DISL:1,2012-02-03T07:00:00Z,30.2513,-88.0778,6.225,10.52,1111122 
DISL,ioos:station:DISL:DISL:1,2012-02-03T07:30:00Z,30.2513,-88.0778,6.12,10.45,1111122 
DISL,ioos:station:DISL:DISL:1,2012-02-03T08:00:00Z,30.2513,-88.0778,6.004,10.39,1111122 
DISL,ioos:station:DISL:DISL:1,2012-02-03T08:30:00Z,30.2513,-88.0778,5.964,10.33,1111122 
DISL,ioos:station:DISL:DISL:1,2012-02-03T09:00:00Z,30.2513,-88.0778,5.886,10.28,1111122 
DISL,ioos:station:DISL:DISL:1,2012-02-03T09:30:00Z,30.2513,-88.0778,5.789,10.29,1111122 
DISL,ioos:station:DISL:DISL:1,2012-02-03T10:00:00Z,30.2513,-88.0778,5.761,10.29,1111122 
DISL,ioos:station:DISL:DISL:1,2012-02-03T10:30:00Z,30.2513,-88.0778,5.718,10.31,1111122 
DISL,ioos:station:DISL:DISL:1,2012-02-03T11:00:00Z,30.2513,-88.0778,5.709,10.32,1111122 
DISL,ioos:station:DISL:DISL:1,2012-02-03T11:30:00Z,30.2513,-88.0778,5.66,10.35,1111122 
DISL,ioos:station:DISL:DISL:1,2012-02-03T12:00:00Z,30.2513,-88.0778,5.687,10.44,1111122 
DISL,ioos:station:DISL:DISL:1,2012-02-03T12:30:00Z,30.2513,-88.0778,5.632,10.44,1111122 
DISL,ioos:station:DISL:DISL:1,2012-02-03T13:00:00Z,30.2513,-88.0778,5.691,10.47,1111122 
DISL,ioos:station:DISL:DISL:1,2012-02-03T13:30:00Z,30.2513,-88.0778,5.791,10.41,1111122 
DISL,ioos:station:DISL:DISL:1,2012-02-03T14:00:00Z,30.2513,-88.0778,5.761,10.3,1111122 
DISL,ioos:station:DISL:DISL:1,2012-02-03T14:30:00Z,30.2513,-88.0778,5.877,10.27,1111122 
DISL,ioos:station:DISL:DISL:1,2012-02-03T15:00:00Z,30.2513,-88.0778,5.815,10.05,1111122 
DISL,ioos:station:DISL:DISL:1,2012-02-03T15:30:00Z,30.2513,-88.0778,5.813,10.02,1111122 
DISL,ioos:station:DISL:DISL:1,2012-02-03T16:00:00Z,30.2513,-88.0778,5.997,10.07,1111122 
DISL,ioos:station:DISL:DISL:1,2012-02-03T16:30:00Z,30.2513,-88.0778,5.987,10.07,1111122 
DISL,ioos:station:DISL:DISL:1,2012-02-03T17:00:00Z,30.2513,-88.0778,6.104,10.02,1111122 
DISL,ioos:station:DISL:DISL:1,2012-02-03T17:30:00Z,30.2513,-88.0778,6.106,9.88,1111122 
DISL,ioos:station:DISL:DISL:1,2012-02-03T18:00:00Z,30.2513,-88.0778,6.263,9.78,1111122 
DISL,ioos:station:DISL:DISL:1,2012-02-03T18:30:00Z,30.2513,-88.0778,6.461,9.75,1111122 
DISL,ioos:station:DISL:DISL:1,2012-02-03T19:00:00Z,30.2513,-88.0778,6.577,9.54,1111122 
DISL,ioos:station:DISL:DISL:1,2012-02-03T19:30:00Z,30.2513,-88.0778,6.68,8.9,1111122 
DISL,ioos:station:DISL:DISL:1,2012-02-03T20:00:00Z,30.2513,-88.0778,6.7,8.84,1111122 
DISL,ioos:station:DISL:DISL:1,2012-02-03T20:30:00Z,30.2513,-88.0778,6.592,8.83,1111122 
DISL,ioos:station:DISL:DISL:1,2012-02-03T21:00:00Z,30.2513,-88.0778,6.741,8.6,1111122 
DISL,ioos:station:DISL:DISL:1,2012-02-03T21:30:00Z,30.2513,-88.0778,6.839,8.53,1111122 
DISL,ioos:station:DISL:DISL:1,2012-02-03T22:00:00Z,30.2513,-88.0778,6.998,8.37,1111122 
DISL,ioos:station:DISL:DISL:1,2012-02-03T22:30:00Z,30.2513,-88.0778,7.09,8.27,1111122 
DISL,ioos:station:DISL:DISL:1,2012-02-03T23:00:00Z,30.2513,-88.0778,6.928,8.29,1111122 
DISL,ioos:station:DISL:DISL:1,2012-02-03T23:30:00Z,30.2513,-88.0778,7.06,8.28,1111122 
DISL,ioos:station:DISL:DISL:1,2012-02-04T00:00:00Z,30.2513,-88.0778,7.18,8.33,1111122 
DISL,ioos:station:DISL:DISL:1,2012-02-04T00:30:00Z,30.2513,-88.0778,7.26,8.4,1111122 
DISL,ioos:station:DISL:DISL:1,2012-02-04T01:00:00Z,30.2513,-88.0778,7.24,9.76,1111122 
DISL,ioos:station:DISL:DISL:1,2012-02-04T01:30:00Z,30.2513,-88.0778,7.34,9.95,1111122 
DISL,ioos:station:DISL:DISL:1,2012-02-04T02:00:00Z,30.2513,-88.0778,7.32,10.0,1111122 
DISL,ioos:station:DISL:DISL:1,2012-02-04T02:30:00Z,30.2513,-88.0778,7.27,10.05,1111122 
DISL,ioos:station:DISL:DISL:1,2012-02-04T03:00:00Z,30.2513,-88.0778,7.21,10.09,1111122 
DISL,ioos:station:DISL:DISL:1,2012-02-04T03:30:00Z,30.2513,-88.0778,7.17,10.1,1111122 
DISL,ioos:station:DISL:DISL:1,2012-02-04T04:00:00Z,30.2513,-88.0778,7.02,10.05,1111122 
DISL,ioos:station:DISL:DISL:1,2012-02-04T04:30:00Z,30.2513,-88.0778,6.966,9.99,1111122 
DISL,ioos:station:DISL:DISL:1,2012-02-04T05:00:00Z,30.2513,-88.0778,6.903,9.51,1111122 
DISL,ioos:station:DISL:DISL:1,2012-02-04T05:30:00Z,30.2513,-88.0778,6.799,8.18,1111122 
DISL,ioos:station:DISL:DISL:1,2012-02-04T06:00:00Z,30.2513,-88.0778,6.777,8.97,1111122 
DISL,ioos:station:DISL:DISL:1,2012-02-04T06:30:00Z,30.2513,-88.0778,6.553,9.53,1111122 
DISL,ioos:station:DISL:DISL:1,2012-02-04T07:00:00Z,30.2513,-88.0778,6.65,9.4,1111122 
DISL,ioos:station:DISL:DISL:1,2012-02-04T07:30:00Z,30.2513,-88.0778,6.607,9.54,1111122 
DISL,ioos:station:DISL:DISL:1,2012-02-04T08:00:00Z,30.2513,-88.0778,6.362,9.3,1111122 
DISL,ioos:station:DISL:DISL:1,2012-02-04T08:30:00Z,30.2513,-88.0778,6.324,9.32,1111122 
DISL,ioos:station:DISL:DISL:1,2012-02-04T09:00:00Z,30.2513,-88.0778,6.281,9.41,1111122 
DISL,ioos:station:DISL:DISL:1,2012-02-04T09:30:00Z,30.2513,-88.0778,6.138,9.42,1111122 
DISL,ioos:station:DISL:DISL:1,2012-02-04T10:00:00Z,30.2513,-88.0778,6.058,9.42,1111122 
DISL,ioos:station:DISL:DISL:1,2012-02-04T10:30:00Z,30.2513,-88.0778,5.966,9.54,1111122 
DISL,ioos:station:DISL:DISL:1,2012-02-04T11:00:00Z,30.2513,-88.0778,5.976,9.57,1111122 
DISL,ioos:station:DISL:DISL:1,2012-02-04T11:30:00Z,30.2513,-88.0778,5.869,9.65,1111122 
DISL,ioos:station:DISL:DISL:1,2012-02-04T12:00:00Z,30.2513,-88.0778,5.853,9.7,1111122 
DISL,ioos:station:DISL:DISL:1,2012-02-04T12:30:00Z,30.2513,-88.0778,5.799,9.74,1111122 
DISL,ioos:station:DISL:DISL:1,2012-02-04T13:00:00Z,30.2513,-88.0778,5.758,9.62,1111122 
DISL,ioos:station:DISL:DISL:1,2012-02-04T13:30:00Z,30.2513,-88.0778,5.631,9.57,1111122 
DISL,ioos:station:DISL:DISL:1,2012-02-04T14:00:00Z,30.2513,-88.0778,5.698,9.56,1111122 
DISL,ioos:station:DISL:DISL:1,2012-02-04T14:30:00Z,30.2513,-88.0778,5.688,9.55,1111122 
DISL,ioos:station:DISL:DISL:1,2012-02-04T15:00:00Z,30.2513,-88.0778,5.674,9.54,1111122 
DISL,ioos:station:DISL:DISL:1,2012-02-04T15:30:00Z,30.2513,-88.0778,5.848,9.57,1111122 
DISL,ioos:station:DISL:DISL:1,2012-02-04T16:00:00Z,30.2513,-88.0778,5.8,9.56,1111122 
DISL,ioos:station:DISL:DISL:1,2012-02-04T16:30:00Z,30.2513,-88.0778,5.841,9.42,1111122 
DISL,ioos:station:DISL:DISL:1,2012-02-04T17:00:00Z,30.2513,-88.0778,5.961,9.33,1111122 
DISL,ioos:station:DISL:DISL:1,2012-02-04T17:30:00Z,30.2513,-88.0778,5.87,9.29,1111122 
DISL,ioos:station:DISL:DISL:1,2012-02-04T18:00:00Z,30.2513,-88.0778,5.946,9.27,1111122 
DISL,ioos:station:DISL:DISL:1,2012-02-04T18:30:00Z,30.2513,-88.0778,6.056,9.23,1111122 
DISL,ioos:station:DISL:DISL:1,2012-02-04T19:00:00Z,30.2513,-88.0778,6.175,9.33,1111122 
DISL,ioos:station:DISL:DISL:1,2012-02-04T19:30:00Z,30.2513,-88.0778,6.329,9.3,1111122 
DISL,ioos:station:DISL:DISL:1,2012-02-04T20:00:00Z,30.2513,-88.0778,6.328,9.29,1111122 
DISL,ioos:station:DISL:DISL:1,2012-02-04T20:30:00Z,30.2513,-88.0778,6.388,8.9,1111122 
DISL,ioos:station:DISL:DISL:1,2012-02-04T21:00:00Z,30.2513,-88.0778,6.598,8.6,1111122 
DISL,ioos:station:DISL:DISL:1,2012-02-04T21:30:00Z,30.2513,-88.0778,6.699,8.48,1111122 
DISL,ioos:station:DISL:DISL:1,2012-02-04T22:00:00Z,30.2513,-88.0778,6.705,8.24,1111122 
DISL,ioos:station:DISL:DISL:1,2012-02-04T22:30:00Z,30.2513,-88.0778,6.801,7.97,1111122 
DISL,ioos:station:DISL:DISL:1,2012-02-04T23:00:00Z,30.2513,-88.0778,7.01,7.86,1111122 
DISL,ioos:station:DISL:DISL:1,2012-02-04T23:30:00Z,30.2513,-88.0778,7.07,7.81,1111122 
DISL,ioos:station:DISL:DISL:1,2012-02-05T00:00:00Z,30.2513,-88.0778,7.15,7.74,1111122 
DISL,ioos:station:DISL:DISL:1,2012-02-05T00:30:00Z,30.2513,-88.0778,7.14,7.92,1111122 
DISL,ioos:station:DISL:DISL:1,2012-02-05T01:00:00Z,30.2513,-88.0778,7.21,7.71,1111122 
DISL,ioos:station:DISL:DISL:1,2012-02-05T01:30:00Z,30.2513,-88.0778,7.29,8.19,1111122 
DISL,ioos:station:DISL:DISL:1,2012-02-05T02:00:00Z,30.2513,-88.0778,7.26,8.49,1111122 
DISL,ioos:station:DISL:DISL:1,2012-02-05T02:30:00Z,30.2513,-88.0778,7.3,8.67,1111122 
DISL,ioos:station:DISL:DISL:1,2012-02-05T03:00:00Z,30.2513,-88.0778,7.21,8.81,1111122 
DISL,ioos:station:DISL:DISL:1,2012-02-05T03:30:00Z,30.2513,-88.0778,7.22,8.59,1111122 
DISL,ioos:station:DISL:DISL:1,2012-02-05T04:00:00Z,30.2513,-88.0778,7.18,8.77,1111122 
DISL,ioos:station:DISL:DISL:1,2012-02-05T04:30:00Z,30.2513,-88.0778,6.99,8.53,1111122 
DISL,ioos:station:DISL:DISL:1,2012-02-05T05:00:00Z,30.2513,-88.0778,6.969,8.41,1111122 
DISL,ioos:station:DISL:DISL:1,2012-02-05T05:30:00Z,30.2513,-88.0778,6.86,8.28,1111122 
DISL,ioos:station:DISL:DISL:1,2012-02-05T06:00:00Z,30.2513,-88.0778,6.782,7.94,1111122 
DISL,ioos:station:DISL:DISL:1,2012-02-05T06:30:00Z,30.2513,-88.0778,6.61,7.97,1111122 
DISL,ioos:station:DISL:DISL:1,2012-02-05T07:00:00Z,30.2513,-88.0778,6.587,9.01,1111122 
DISL,ioos:station:DISL:DISL:1,2012-02-05T07:30:00Z,30.2513,-88.0778,6.568,9.61,1111122 
DISL,ioos:station:DISL:DISL:1,2012-02-05T08:00:00Z,30.2513,-88.0778,6.48,9.53,1111122 
DISL,ioos:station:DISL:DISL:1,2012-02-05T08:30:00Z,30.2513,-88.0778,6.385,9.66,1111122 
DISL,ioos:station:DISL:DISL:1,2012-02-05T09:00:00Z,30.2513,-88.0778,6.329,9.67,1111122 
DISL,ioos:station:DISL:DISL:1,2012-02-05T09:30:00Z,30.2513,-88.0778,6.195,9.65,1111122 
DISL,ioos:station:DISL:DISL:1,2012-02-05T10:00:00Z,30.2513,-88.0778,6.126,9.63,1111122 
DISL,ioos:station:DISL:DISL:1,2012-02-05T10:30:00Z,30.2513,-88.0778,6.09,9.62,1111122 
DISL,ioos:station:DISL:DISL:1,2012-02-05T11:00:00Z,30.2513,-88.0778,5.98,9.62,1111122 
DISL,ioos:station:DISL:DISL:1,2012-02-05T11:30:00Z,30.2513,-88.0778,6.023,9.64,1111122 
DISL,ioos:station:DISL:DISL:1,2012-02-05T12:00:00Z,30.2513,-88.0778,5.952,9.61,1111122 
DISL,ioos:station:DISL:DISL:1,2012-02-05T12:30:00Z,30.2513,-88.0778,5.915,9.64,1111122 
DISL,ioos:station:DISL:DISL:1,2012-02-05T13:00:00Z,30.2513,-88.0778,5.896,9.64,1111122 
DISL,ioos:station:DISL:DISL:1,2012-02-05T13:30:00Z,30.2513,-88.0778,5.988,9.64,1111122 
DISL,ioos:station:DISL:DISL:1,2012-02-05T14:00:00Z,30.2513,-88.0778,5.52,9.64,1111122 
DISL,ioos:station:DISL:DISL:1,2012-02-05T14:30:00Z,30.2513,-88.0778,5.812,9.65,1111122 
DISL,ioos:station:DISL:DISL:1,2012-02-05T15:00:00Z,30.2513,-88.0778,5.694,9.68,1111122 
DISL,ioos:station:DISL:DISL:1,2012-02-05T15:30:00Z,30.2513,-88.0778,5.773,9.73,1111122 
DISL,ioos:station:DISL:DISL:1,2012-02-05T16:00:00Z,30.2513,-88.0778,6.021,9.77,1111122 
DISL,ioos:station:DISL:DISL:1,2012-02-05T16:30:00Z,30.2513,-88.0778,6.013,9.76,1111122 
DISL,ioos:station:DISL:DISL:1,2012-02-05T17:00:00Z,30.2513,-88.0778,5.873,9.8,1111122 
DISL,ioos:station:DISL:DISL:1,2012-02-05T17:30:00Z,30.2513,-88.0778,5.969,9.78,1111122 
DISL,ioos:station:DISL:DISL:1,2012-02-05T18:00:00Z,30.2513,-88.0778,5.939,9.65,1111122 
DISL,ioos:station:DISL:DISL:1,2012-02-05T18:30:00Z,30.2513,-88.0778,5.93,9.14,1111122 
DISL,ioos:station:DISL:DISL:1,2012-02-05T19:00:00Z,30.2513,-88.0778,6.199,9.11,1111122 
DISL,ioos:station:DISL:DISL:1,2012-02-05T19:30:00Z,30.2513,-88.0778,6.139,9.31,1111122 
DISL,ioos:station:DISL:DISL:1,2012-02-05T20:00:00Z,30.2513,-88.0778,6.238,9.31,1111122 
DISL,ioos:station:DISL:DISL:1,2012-02-05T20:30:00Z,30.2513,-88.0778,6.219,8.83,1111122 
DISL,ioos:station:DISL:DISL:1,2012-02-05T21:00:00Z,30.2513,-88.0778,6.492,8.12,1111122 
DISL,ioos:station:DISL:DISL:1,2012-02-05T21:30:00Z,30.2513,-88.0778,6.419,7.73,1111122 
DISL,ioos:station:DISL:DISL:1,2012-02-05T22:00:00Z,30.2513,-88.0778,6.663,7.69,1111122 
DISL,ioos:station:DISL:DISL:1,2012-02-05T22:30:00Z,30.2513,-88.0778,6.811,7.5,1111122 
DISL,ioos:station:DISL:DISL:1,2012-02-05T23:00:00Z,30.2513,-88.0778,6.892,7.57,1111122 
DISL,ioos:station:DISL:DISL:1,2012-02-05T23:30:00Z,30.2513,-88.0778,6.849,7.41,1111122 
DISL,ioos:station:DISL:DISL:1,2012-02-06T00:00:00Z,30.2513,-88.0778,6.787,7.38,1111122 
DISL,ioos:station:DISL:DISL:1,2012-02-06T00:30:00Z,30.2513,-88.0778,7.01,7.39,1111122 
DISL,ioos:station:DISL:DISL:1,2012-02-06T01:00:00Z,30.2513,-88.0778,7.14,7.54,1111122 
DISL,ioos:station:DISL:DISL:1,2012-02-06T01:30:00Z,30.2513,-88.0778,6.993,7.48,1111122 
DISL,ioos:station:DISL:DISL:1,2012-02-06T02:00:00Z,30.2513,-88.0778,6.974,8.7,1111122 
DISL,ioos:station:DISL:DISL:1,2012-02-06T02:30:00Z,30.2513,-88.0778,7.16,7.71,1111122 
DISL,ioos:station:DISL:DISL:1,2012-02-06T03:00:00Z,30.2513,-88.0778,7.2,9.03,1111122 
DISL,ioos:station:DISL:DISL:1,2012-02-06T03:30:00Z,30.2513,-88.0778,7.26,9.24,1111122 
DISL,ioos:station:DISL:DISL:1,2012-02-06T04:00:00Z,30.2513,-88.0778,7.2,9.24,1111122 
DISL,ioos:station:DISL:DISL:1,2012-02-06T04:30:00Z,30.2513,-88.0778,7.21,9.29,1111122 
DISL,ioos:station:DISL:DISL:1,2012-02-06T05:00:00Z,30.2513,-88.0778,6.972,9.2,1111122 
DISL,ioos:station:DISL:DISL:1,2012-02-06T05:30:00Z,30.2513,-88.0778,7.18,9.41,1111122 
DISL,ioos:station:DISL:DISL:1,2012-02-06T06:00:00Z,30.2513,-88.0778,6.897,9.38,1111122 
DISL,ioos:station:DISL:DISL:1,2012-02-06T06:30:00Z,30.2513,-88.0778,6.6,9.36,1111122 
DISL,ioos:station:DISL:DISL:1,2012-02-06T07:00:00Z,30.2513,-88.0778,6.651,9.37,1111122 
DISL,ioos:station:DISL:DISL:1,2012-02-06T07:30:00Z,30.2513,-88.0778,6.371,9.42,1111122 
DISL,ioos:station:DISL:DISL:1,2012-02-06T08:00:00Z,30.2513,-88.0778,6.312,9.42,1111122 
DISL,ioos:station:DISL:DISL:1,2012-02-06T08:30:00Z,30.2513,-88.0778,6.615,9.55,1111122 
DISL,ioos:station:DISL:DISL:1,2012-02-06T09:00:00Z,30.2513,-88.0778,6.328,9.57,1111122 
DISL,ioos:station:DISL:DISL:1,2012-02-06T09:30:00Z,30.2513,-88.0778,6.442,9.58,1111122 
DISL,ioos:station:DISL:DISL:1,2012-02-06T10:00:00Z,30.2513,-88.0778,5.869,9.6,1111122 
DISL,ioos:station:DISL:DISL:1,2012-02-06T10:30:00Z,30.2513,-88.0778,6.059,9.5,1111122 
DISL,ioos:station:DISL:DISL:1,2012-02-06T11:00:00Z,30.2513,-88.0778,5.668,9.49,1111122 
DISL,ioos:station:DISL:DISL:1,2012-02-06T11:30:00Z,30.2513,-88.0778,5.544,9.42,1111122 
DISL,ioos:station:DISL:DISL:1,2012-02-06T12:00:00Z,30.2513,-88.0778,5.629,9.44,1111122 
DISL,ioos:station:DISL:DISL:1,2012-02-06T12:30:00Z,30.2513,-88.0778,5.558,9.38,1111122 
DISL,ioos:station:DISL:DISL:1,2012-02-06T13:00:00Z,30.2513,-88.0778,5.492,9.39,1111122 
DISL,ioos:station:DISL:DISL:1,2012-02-06T13:30:00Z,30.2513,-88.0778,5.439,9.4,1111122 
DISL,ioos:station:DISL:DISL:1,2012-02-06T14:00:00Z,30.2513,-88.0778,5.446,9.44,1111122 
DISL,ioos:station:DISL:DISL:1,2012-02-06T14:30:00Z,30.2513,-88.0778,5.636,9.5,1111122 
DISL,ioos:station:DISL:DISL:1,2012-02-06T15:00:00Z,30.2513,-88.0778,5.41,9.35,1111122 